Wind_Speed
37 35 32 29 35 43 31 36 40 39 39 38 37 37 36 34 32 31 29 27 23 21 19 18 18 17 14 7 16 15 12 16 16 8 6 7 8 7 11 7 9 13 10 9 12 11 14
30 40 42 39 35 32 45 34 32 39 41 41 39 37 37 36 34 32 30 29 25 23 20 19 18 17 11 14 11 12 13 17 12 13 6 8 6 8 5 8 11 2 8 10 11 14 16
36 32 31 37 44 42 35 42 36 30 38 43 43 40 38 37 36 34 32 30 27 25 21 19 18 16 17 27 12 13 13 14 15 14 12 11 9 8 5 6 6 9 12 13 15 16 10
33 30 31 32 30 33 44 38 41 40 30 36 43 43 41 38 37 36 33 31 28 26 21 20 17 14 14 22 16 18 17 20 21 19 14 9 10 8 8 3 5 9 7 12 5 7 6
37 37 36 34 37 37 32 35 41 44 40 32 35 42 44 41 38 36 34 31 28 25 20 15 13 10 15 17 23 20 22 16 15 20 17 14 13 11 8 11 10 10 12 10 6 6 6
38 39 38 38 37 35 39 35 35 38 43 40 32 32 38 42 39 36 33 30 24 23 20 15 16 5 19 11 10 15 12 14 8 15 14 11 13 11 12 11 13 13 13 6 12 7 8
38 39 42 40 39 40 39 40 38 33 35 40 38 32 32 35 40 37 36 32 23 16 33 20 15 22 3 15 10 14 17 14 12 16 11 19 12 18 24 21 17 6 9 13 6 6 9
45 46 44 43 44 45 44 39 39 38 34 33 32 37 31 34 33 41 40 44 37 6 10 36 32 25 21 7 6 14 14 18 16 16 16 10 20 22 14 15 15 14 13 16 11 8 10
50 49 48 47 45 47 46 48 47 42 41 36 35 31 35 31 33 39 50 51 28 25 9 18 42 48 32 23 11 21 19 16 18 21 22 21 10 18 14 14 15 16 16 14 14 8 13
52 52 54 54 50 50 49 45 47 46 47 42 36 35 27 32 38 42 52 48 34 20 6 15 21 23 42 29 25 32 25 15 12 20 19 17 14 13 19 18 15 16 15 16 15 10 10
54 56 56 55 57 56 51 48 48 46 43 46 41 37 32 25 23 43 46 46 37 21 5 7 28 11 29 36 10 30 44 27 20 13 17 13 16 21 19 17 16 11 4 10 11 14 15
56 56 58 59 58 58 57 55 50 47 43 44 42 38 35 30 26 33 45 49 39 7 11 8 12 20 20 33 26 8 25 29 21 25 21 20 8 13 18 15 16 1 8 6 7 10 15
56 61 61 61 61 59 59 59 54 50 45 41 44 41 35 34 25 34 44 52 10 10 9 11 12 19 24 17 25 19 21 28 20 21 30 23 24 11 8 10 12 16 13 5 9 9 14
49 52 60 67 64 63 61 59 57 55 48 44 39 39 40 43 35 28 59 18 12 13 24 10 15 24 22 19 22 21 20 22 29 24 13 24 17 27 19 22 12 23 19 9 9 14 14
46 51 54 57 68 69 65 62 59 54 51 43 38 38 41 45 46 30 43 21 12 20 29 17 21 20 16 21 13 19 22 23 24 22 15 17 16 1 12 21 19 12 20 15 10 11 7
53 54 54 58 61 68 71 66 61 56 51 45 43 39 46 41 46 45 16 22 16 19 27 23 18 16 18 25 15 21 20 17 19 26 14 10 6 6 10 7 23 14 10 6 5 6 9
57 52 54 58 62 66 73 70 64 58 52 47 41 27 41 39 35 29 10 12 12 33 29 27 22 14 22 26 20 21 15 5 21 24 20 9 4 7 9 13 18 16 14 8 7 9 6
54 56 54 55 62 64 72 75 66 61 54 46 41 16 25 30 15 13 15 6 21 31 41 24 23 19 26 24 22 20 19 14 17 16 17 12 4 9 15 4 6 21 23 22 6 8 8
59 61 58 53 58 67 69 75 71 63 59 51 35 32 25 39 16 19 25 19 24 32 33 28 24 23 19 19 12 18 18 5 19 17 18 13 6 5 5 6 7 11 16 23 20 4 18
59 62 48 35 55 67 64 73 72 65 60 53 27 9 15 34 41 25 30 14 10 34 33 29 21 23 21 16 12 20 17 8 13 12 10 17 10 13 14 9 7 21 21 21 23 13 14
55 53 37 3 35 57 59 71 71 66 61 54 29 7 17 11 14 28 23 11 17 13 20 26 19 29 23 12 22 14 24 8 8 9 7 10 13 15 18 7 8 13 23 24 28 27 19
49 43 29 10 31 34 60 70 66 62 61 47 17 6 9 15 27 22 30 32 24 20 20 28 21 30 29 21 24 22 17 12 11 13 13 9 9 14 20 14 9 13 17 23 26 25 27
46 38 25 9 14 42 59 63 59 58 60 35 26 28 6 9 21 20 25 17 27 25 23 33 31 24 24 16 12 4 20 17 13 14 13 10 9 8 6 11 7 15 22 21 20 23 23
37 37 26 13 31 45 54 53 51 51 56 32 29 18 8 8 12 18 23 25 26 29 19 22 32 26 17 29 30 25 26 13 10 9 15 14 13 6 5 10 9 3 4 22 23 21 22
35 22 19 14 28 37 40 38 44 47 54 34 25 27 14 3 14 18 26 24 22 22 12 16 17 24 40 19 5 5 3 3 4 6 17 15 8 6 7 13 7 11 7 11 18 19 21
58 22 8 10 16 22 30 37 40 44 49 39 21 24 17 9 7 16 18 23 13 9 3 5 20 49 26 4 4 7 7 7 8 7 3 11 9 7 7 7 10 3 13 9 7 12 12
45 51 16 7 11 18 24 33 38 41 42 44 27 18 13 3 5 13 12 22 6 9 6 7 10 5 6 5 4 3 4 8 12 16 12 10 6 13 8 8 4 7 14 15 8 1 7
44 45 48 15 5 19 20 29 33 34 38 42 30 25 20 6 9 19 15 24 11 16 9 10 9 0 2 4 5 4 4 7 5 12 13 11 12 7 5 7 12 17 18 12 8 13 12
41 39 42 37 18 11 27 23 28 32 34 37 18 24 20 10 4 4 3 7 23 24 22 25 3 10 5 5 4 5 4 5 11 9 9 7 5 7 9 5 7 28 10 11 11 12 9
Wind_Direction
258 257 257 261 258 246 248 245 253 248 246 245 244 242 238 237 237 239 240 242 242 245 251 257 267 277 291 265 248 263 223 239 261 258 225 195 203 224 237 233 230 237 254 253 250 243 253
271 260 259 259 258 258 246 246 242 245 248 243 242 242 241 238 236 235 237 241 241 243 247 252 261 271 279 260 254 247 241 237 216 203 228 213 209 199 252 240 242 344 255 249 256 252 255
279 278 276 264 260 262 258 252 244 243 241 248 237 239 238 237 237 234 234 238 239 243 243 249 255 265 269 248 247 255 237 222 209 223 251 225 205 192 179 229 249 267 268 257 252 251 243
268 267 270 270 274 271 261 258 252 242 241 240 247 234 235 235 234 234 233 233 235 241 240 243 248 262 257 256 253 241 245 246 243 241 214 212 212 209 214 231 222 253 248 257 142 201 182
273 270 272 267 266 268 268 262 256 249 242 243 238 245 233 232 231 231 229 231 232 236 238 238 242 242 267 255 249 250 237 238 221 228 217 223 204 217 191 224 243 215 256 217 187 229 245
277 275 268 267 270 267 266 267 266 258 253 242 239 243 242 231 229 227 224 222 222 223 223 217 219 230 242 233 221 202 188 183 166 158 147 169 195 201 217 210 229 240 229 219 250 171 218
271 269 269 268 267 270 271 266 265 265 260 251 241 241 244 238 229 224 213 202 197 209 207 196 194 214 284 215 225 220 215 182 164 180 183 184 204 207 209 212 235 270 267 265 226 255 287
267 266 266 262 265 266 268 264 262 261 258 251 247 237 238 245 234 222 216 203 202 226 227 219 228 226 231 204 207 197 176 183 189 203 195 174 223 223 221 210 223 224 250 260 273 274 254
266 265 264 261 259 260 261 261 259 260 260 256 243 241 242 236 243 240 208 217 208 224 257 214 220 225 221 229 228 201 188 195 202 209 196 214 206 223 191 194 208 223 235 253 261 254 262
271 268 264 261 260 257 256 256 257 256 255 255 254 242 235 236 238 226 213 213 195 187 261 245 200 233 218 226 245 222 202 190 204 215 209 232 210 198 199 206 206 230 224 250 260 268 271
269 266 265 261 259 256 254 250 253 253 253 250 248 248 239 228 226 209 210 199 179 163 223 233 213 199 194 196 159 213 214 219 218 198 191 199 202 202 210 207 195 246 187 237 258 264 273
270 267 264 261 258 254 252 250 250 248 249 246 244 244 244 243 236 226 204 188 164 145 216 228 155 184 172 201 218 184 194 209 230 230 222 241 189 218 229 228 197 130 178 212 242 252 249
274 268 264 259 256 253 251 247 247 246 245 242 239 238 235 236 240 218 192 170 183 198 143 194 187 175 186 183 202 193 186 192 192 201 222 219 229 212 198 172 197 196 179 227 228 214 251
285 278 265 257 255 251 247 244 242 242 240 241 239 237 231 234 229 218 176 187 206 178 185 146 170 182 190 168 202 197 191 197 211 215 214 219 223 213 201 212 187 201 195 212 251 249 257
296 283 271 263 253 249 244 240 237 235 236 234 231 232 230 225 224 215 183 205 190 177 190 163 168 171 190 183 178 191 206 207 203 206 215 202 223 205 196 212 201 201 218 227 263 280 272
301 290 277 263 251 245 239 235 232 229 228 225 225 225 229 220 220 229 231 200 183 189 178 166 182 181 181 187 184 190 192 207 204 202 218 199 167 187 164 203 224 181 186 167 215 214 242
306 295 285 264 250 240 233 229 226 221 218 217 216 219 228 216 214 227 230 207 180 199 181 176 182 171 190 185 193 190 190 180 191 190 202 182 202 154 170 207 183 199 202 203 200 229 257
316 308 293 267 247 233 229 221 219 214 209 207 203 219 214 203 204 219 224 217 186 186 190 191 192 179 184 179 182 181 205 204 190 169 195 194 195 186 200 127 282 213 207 200 189 174 235
330 324 305 267 243 226 220 213 208 206 199 194 201 214 207 195 203 217 217 218 209 182 187 184 193 184 178 176 175 192 199 141 164 169 174 174 192 179 198 206 218 229 216 219 222 246 221
342 339 323 261 215 212 210 204 195 196 195 188 185 201 218 207 210 218 201 215 220 192 187 189 175 178 158 180 184 189 174 176 176 164 191 181 189 230 236 274 189 210 214 215 211 224 224
355 354 356 69 189 194 198 191 186 189 187 181 185 203 189 189 206 211 221 203 191 184 191 186 175 182 167 177 194 186 183 130 167 159 182 209 236 236 251 242 246 222 215 212 217 224 222
6 6 19 96 168 181 186 178 179 183 183 182 172 172 170 208 207 213 223 211 200 187 178 191 176 189 186 194 191 188 161 162 165 185 178 189 230 227 233 214 248 235 235 216 226 233 245
11 16 19 30 162 174 173 171 174 178 179 186 193 207 206 183 220 197 214 208 203 186 193 191 184 173 192 194 169 135 176 170 155 173 172 156 170 181 225 195 241 263 226 224 220 230 235
14 20 34 78 152 159 160 165 172 180 186 184 193 191 182 238 210 212 218 219 198 201 175 197 197 184 141 126 89 65 66 75 146 180 170 169 162 163 145 152 224 263 335 215 222 220 231
22 28 46 109 146 153 161 166 177 182 189 186 189 194 204 207 224 252 210 200 206 197 183 180 169 153 144 130 98 107 68 97 81 173 181 184 145 147 173 208 284 223 191 183 198 231 230
19 38 67 116 145 158 165 174 182 187 192 192 193 195 204 243 237 247 215 206 197 149 96 88 132 145 147 97 137 157 169 154 169 140 140 182 191 192 179 208 222 346 157 164 171 253 208
23 27 44 161 177 179 179 182 185 191 195 196 203 204 199 245 271 310 224 198 154 140 98 131 136 99 123 128 134 140 146 144 166 166 161 163 168 201 190 222 258 145 151 151 180 134 140
26 26 30 60 165 206 199 194 196 201 200 199 205 213 204 224 311 296 291 178 163 157 143 153 105 155 120 136 154 139 150 179 146 170 176 170 163 182 179 212 237 157 158 179 117 125 128
29 27 25 28 44 147 203 207 205 205 202 199 206 212 208 215 284 346 333 151 186 181 138 171 70 135 145 124 140 130 165 158 154 181 212 190 190 167 192 198 128 169 158 144 147 145 142
Height
1452 1454 1454 1455 1456 1460 1461 1462 1466 1470 1474 1476 1479 1481 1483 1486 1488 1492 1494 1495 1497 1499 1500 1500 1501 1502 1503 1504 1500 1496 1497 1496 1498 1500 1502 1501 1501 1501 1498 1498 1499 1497 1492 1494 1494 1495 1494
1445 1446 1446 1447 1448 1449 1451 1454 1454 1458 1463 1468 1471 1473 1476 1479 1482 1485 1488 1490 1491 1495 1495 1496 1499 1498 1500 1499 1492 1492 1491 1492 1495 1496 1499 1500 1498 1499 1499 1498 1498 1495 1494 1492 1492 1491 1490
1438 1439 1438 1439 1439 1440 1442 1443 1446 1448 1451 1456 1461 1465 1468 1472 1476 1479 1482 1485 1485 1490 1491 1492 1495 1495 1494 1486 1487 1489 1489 1490 1490 1492 1495 1498 1498 1497 1498 1495 1497 1496 1493 1487 1486 1485 1484
1431 1431 1432 1432 1432 1431 1434 1434 1436 1440 1441 1444 1449 1454 1459 1463 1468 1473 1476 1479 1481 1485 1487 1488 1490 1492 1486 1481 1482 1481 1483 1483 1485 1486 1489 1494 1496 1496 1496 1496 1495 1493 1491 1484 1474 1482 1482
1423 1423 1424 1424 1424 1425 1425 1426 1428 1429 1433 1434 1436 1443 1448 1454 1459 1465 1470 1474 1477 1480 1482 1484 1487 1491 1482 1475 1472 1474 1477 1478 1480 1481 1483 1489 1495 1494 1494 1492 1488 1485 1480 1476 1476 1479 1476
1413 1415 1415 1416 1416 1416 1418 1419 1420 1421 1424 1426 1429 1431 1436 1443 1450 1457 1464 1468 1471 1475 1478 1480 1482 1490 1475 1469 1467 1469 1470 1473 1475 1479 1482 1487 1490 1487 1485 1483 1482 1474 1477 1478 1475 1474 1477
1404 1404 1405 1406 1408 1409 1409 1412 1413 1413 1415 1417 1420 1424 1426 1432 1440 1449 1455 1461 1468 1468 1463 1459 1462 1463 1460 1463 1465 1466 1467 1468 1472 1475 1471 1478 1481 1474 1469 1471 1470 1476 1475 1473 1468 1474 1477
1391 1392 1392 1394 1396 1398 1400 1401 1404 1406 1408 1410 1412 1415 1420 1423 1428 1431 1442 1441 1447 1455 1455 1453 1458 1460 1462 1461 1461 1462 1462 1464 1464 1462 1465 1474 1468 1459 1464 1466 1473 1474 1476 1472 1467 1471 1475
1379 1379 1379 1381 1383 1386 1388 1391 1394 1397 1399 1402 1404 1408 1412 1417 1419 1421 1421 1430 1448 1454 1451 1439 1442 1446 1455 1460 1454 1453 1456 1455 1454 1455 1456 1451 1449 1457 1467 1468 1471 1469 1470 1470 1469 1467 1468
1365 1364 1365 1367 1370 1372 1375 1378 1382 1385 1389 1393 1397 1402 1404 1411 1416 1410 1416 1430 1441 1449 1450 1427 1429 1431 1444 1455 1443 1449 1449 1449 1449 1446 1451 1449 1447 1454 1461 1460 1464 1465 1461 1467 1467 1470 1464
1349 1349 1349 1351 1354 1358 1361 1365 1369 1373 1377 1383 1388 1394 1396 1403 1403 1404 1410 1424 1429 1442 1440 1418 1409 1417 1422 1427 1427 1430 1439 1444 1439 1442 1446 1439 1446 1449 1454 1454 1460 1458 1459 1466 1465 1465 1461
1332 1331 1332 1334 1336 1340 1345 1351 1356 1361 1365 1371 1378 1384 1391 1393 1393 1399 1404 1412 1420 1437 1417 1404 1401 1407 1411 1422 1421 1427 1429 1436 1438 1439 1440 1436 1444 1444 1444 1449 1456 1458 1464 1468 1469 1464 1458
1313 1312 1313 1315 1317 1321 1327 1334 1341 1347 1354 1360 1367 1374 1382 1386 1385 1391 1395 1401 1404 1396 1394 1391 1400 1402 1401 1404 1417 1418 1419 1421 1421 1434 1428 1438 1437 1442 1446 1451 1455 1458 1460 1464 1461 1460 1441
1295 1291 1290 1292 1295 1301 1308 1316 1324 1333 1341 1350 1357 1365 1369 1372 1378 1382 1381 1382 1369 1377 1378 1373 1389 1393 1392 1398 1407 1410 1410 1409 1414 1411 1406 1425 1431 1432 1438 1436 1447 1450 1448 1454 1460 1436 1421
1276 1271 1267 1267 1270 1277 1286 1296 1307 1317 1327 1339 1349 1352 1356 1359 1368 1370 1364 1348 1347 1352 1357 1370 1383 1389 1388 1392 1391 1401 1398 1397 1403 1407 1409 1408 1414 1420 1426 1432 1434 1452 1446 1448 1459 1452 1451
1257 1249 1243 1241 1243 1251 1262 1275 1288 1301 1314 1328 1335 1342 1338 1351 1359 1360 1344 1333 1345 1343 1347 1360 1370 1371 1376 1381 1385 1390 1393 1388 1397 1403 1404 1404 1418 1421 1427 1433 1429 1436 1444 1467 1472 1458 1444
1232 1221 1213 1211 1214 1223 1235 1252 1269 1285 1301 1317 1326 1330 1326 1341 1354 1348 1332 1320 1333 1336 1335 1344 1349 1354 1361 1367 1373 1379 1380 1388 1390 1397 1403 1405 1405 1429 1429 1422 1419 1430 1438 1443 1443 1440 1429
1204 1190 1179 1173 1178 1191 1208 1227 1248 1268 1288 1304 1313 1312 1321 1331 1339 1324 1324 1320 1318 1323 1331 1332 1336 1339 1348 1354 1362 1372 1372 1376 1388 1393 1399 1402 1405 1412 1418 1422 1422 1412 1418 1427 1436 1444 1433
1178 1157 1135 1128 1138 1158 1182 1204 1227 1251 1272 1289 1301 1307 1315 1320 1318 1312 1315 1317 1311 1308 1314 1321 1324 1327 1339 1349 1365 1362 1368 1383 1384 1388 1394 1402 1412 1420 1422 1427 1427 1422 1417 1412 1422 1426 1417
1161 1132 1096 1078 1099 1131 1162 1186 1210 1236 1258 1279 1295 1297 1307 1305 1303 1304 1301 1308 1307 1297 1302 1309 1308 1323 1335 1348 1351 1359 1366 1385 1385 1385 1396 1395 1397 1393 1390 1389 1398 1416 1410 1411 1413 1422 1412
1156 1130 1100 1085 1099 1126 1153 1175 1200 1226 1247 1267 1277 1277 1281 1282 1288 1296 1298 1300 1301 1293 1295 1300 1307 1317 1321 1343 1349 1352 1356 1378 1383 1389 1393 1396 1395 1399 1401 1402 1403 1398 1401 1404 1404 1402 1405
1162 1144 1130 1121 1125 1138 1154 1173 1196 1221 1242 1258 1263 1270 1278 1276 1281 1290 1291 1287 1291 1286 1285 1294 1296 1306 1312 1322 1317 1334 1346 1365 1377 1390 1391 1391 1397 1401 1401 1403 1411 1405 1396 1394 1398 1399 1395
1173 1159 1149 1144 1145 1151 1163 1181 1202 1222 1237 1248 1257 1265 1266 1265 1268 1279 1275 1275 1281 1279 1282 1285 1286 1303 1315 1322 1329 1342 1348 1359 1367 1376 1383 1395 1401 1403 1404 1411 1417 1409 1390 1390 1393 1395 1393
1186 1175 1167 1164 1164 1170 1180 1194 1211 1224 1234 1245 1254 1263 1268 1262 1264 1265 1269 1278 1272 1271 1279 1285 1295 1297 1318 1325 1338 1351 1360 1369 1374 1379 1383 1392 1401 1408 1411 1414 1410 1379 1385 1380 1386 1391 1393
1199 1191 1186 1184 1186 1191 1198 1208 1217 1226 1236 1246 1252 1260 1264 1259 1265 1269 1265 1271 1268 1272 1275 1280 1290 1298 1312 1327 1351 1363 1372 1376 1383 1385 1384 1388 1390 1404 1406 1399 1370 1376 1386 1383 1384 1386 1389
1214 1203 1201 1201 1201 1203 1207 1213 1221 1227 1235 1246 1250 1256 1261 1262 1259 1260 1256 1263 1260 1270 1286 1289 1295 1301 1310 1332 1342 1343 1352 1356 1374 1383 1387 1387 1387 1387 1397 1387 1375 1369 1374 1381 1387 1382 1384
1227 1217 1208 1209 1211 1211 1214 1217 1221 1228 1235 1243 1250 1254 1259 1259 1254 1256 1249 1246 1251 1261 1277 1289 1297 1306 1309 1318 1332 1338 1344 1347 1361 1361 1374 1381 1387 1381 1387 1381 1369 1378 1379 1384 1389 1379 1386
1238 1229 1220 1212 1210 1214 1216 1219 1224 1230 1237 1242 1248 1252 1256 1258 1256 1253 1244 1244 1253 1251 1264 1286 1294 1307 1311 1314 1320 1338 1343 1346 1347 1354 1357 1359 1367 1376 1387 1384 1374 1374 1380 1379 1376 1385 1388
1247 1238 1230 1220 1212 1211 1213 1219 1223 1229 1235 1243 1247 1250 1253 1259 1261 1255 1250 1242 1251 1254 1258 1279 1274 1285 1299 1309 1319 1331 1339 1338 1341 1354 1354 1357 1348 1356 1360 1361 1366 1370 1369 1377 1382 1386 1389